Regional Weather Roundup
Issued by NWS

Home | Current Version | Previous Version | Graphics & Text | Print | Product List | Glossary On
Versions: 1 2 3 4 5 6 7 8 9 10 11 12 13 14 15 16 17 18 19 20 21 22 23 24 25 26 27 28 29 30 31 32 33 34 35 36 37 38 39 40 41 42 43 44 45 46 47 48 49 50
453
ASUS44 KJAN 171003
RWRMS

MISSISSIPPI HOURLY WEATHER ROUNDUP
NATIONAL WEATHER SERVICE JACKSON MS
400 AM CST WED DEC 17 2014

NOTE: "FAIR: INDICATES FEW OR NO CLOUDS BELOW 12,000 FEET WITH NO
SIGNIFICANT WEATHER AND/OR OBSTRUCTIONS TO VISIBILITY.

MSZ001>002-007>008-010>013-018>021-025>028-034>036-171100-
NORTHWEST MISSISSIPPI

CITY           SKY/WX    TMP DP  RH WIND       PRES   REMARKS
CLARKSDALE     FAIR      34  32  93 NW5       30.32S WCI  30
CLEVELAND      FAIR      33  32  96 N7        30.30S WCI  27
GREENWOOD      CLEAR     34  32  92 CALM      30.29S
GREENVILLE     CLEAR     35  31  85 N7        30.30S WCI  29
GRENADA        FAIR      32  32 100 CALM      30.29F
OLIVE BRANCH   CLEAR     30  30 100 N5        30.29F WCI  25
OXFORD         FAIR      28  28 100 NW3       30.29S
TUNICA         SUNNY     32  30  93 N8        30.32S WCI  25
$$

MSZ003>006-009-014>017-022>024-029>033-037>039-171100-
NORTHEAST MISSISSIPPI

CITY           SKY/WX    TMP DP  RH WIND       PRES   REMARKS
COLUMBUS AFB   CLEAR     30  29  96 CALM      30.26F
CORINTH        CLOUDY    39  32  75 NW6       30.26S WCI  35
GOLDN TRIANGLE CLEAR     34  30  86 NW5       30.24F WCI  30
STARKVILLE     FAIR      32  30  93 CALM      30.27S FOG
TUPELO         CLEAR     35  31  85 N5        30.26F WCI  31
$$

MSZ040-058-171100-
CENTRAL MISSISSIPPI

CITY           SKY/WX    TMP DP  RH WIND       PRES   REMARKS
JACKSON INTL   CLEAR     32  31  96 CALM      30.26F FOG
JACKSON HAWKNS CLEAR     35  33  92 CALM      30.26F
MERIDIAN KEY   CLEAR     30  29  96 CALM      30.26S
MERIDIAN NAS   CLEAR     33  31  92 CALM      30.26F
RAYMOND        FAIR      30  27  86 MISG      30.26F FOG
VICKSBURG      CLEAR     36  34  92 N7        30.28S WCI  30
$$

MSZ059>079-171100-
SOUTH MISSISSIPPI

CITY           SKY/WX    TMP DP  RH WIND       PRES   REMARKS
HATTIESBURG    CLEAR     34  33  96 CALM      30.25F
MCCOMB         CLEAR     40  34  79 CALM      30.24S
NATCHEZ        CLEAR     34  28  80 CALM      30.26S
PINE BELT      CLEAR     34  30  86 CALM      30.24F
$$

MSZ080>082-171100-
COASTAL MISSISSIPPI

CITY           SKY/WX    TMP DP  RH WIND       PRES   REMARKS
BILOXI         CLEAR     42  37  83 NE6       30.23F
PASCAGOULA     CLEAR     37  35  92 CALM      30.24F
GULFPORT       CLEAR     40  35  83 N3        30.23F HAZE
$$



USA.gov is the U.S. government's official web portal to all federal, state and local government web resources and services.